ONEWEB-0704, 61609

Orbit data source: Space-Track

ONEWEB-0704, 61609 is a payload satellite owned by Eut. One Web (UK) in LEO that was launched on Sun, 20 Oct 2024 UTC via an FALCON 9 launch vehicle from the Air Force Western Test Range (AFWTR). Payload-class satellites include a variety of spacecraft equipped with specific instruments for various scientific and technological missions. These include communications satellites like Starlink; space stations such as the ISS; scientific satellites like the Hubble; Earth observation satellites from companies like Planet Labs, Umbra, and HawkEye 360; GPS; miniature CubeSats for education and research; and military/defense satellites.

Loading next visibility...
Identifier
61609, 2024-188R
Orbit
LEO
Country
Flag of UKUK
Related business
Manufacturer
One Web
Mission
Operational Commercial Communications
Bus & Motor
ARROW, Unknown motor
Mass
148 kg wet, ~140 kg dry
Launch date (UTC)
2024-10-20 (2 years ago)
Launch vehicle
FALCON 9
Launch site
Air Force Western Test Range (AFWTR)
Object type
Payload
Rocket body
Debris
Shape & HBR
Trap Box + 2 Pan, 6.7 m
Radar Cross Section
3.464 m², Large (>1 m²)

Expand to show TLE details & history
Last TLE update: 16 hours ago

TLE from 16 hours ago
0 ONEWEB-0704
1 61609U 24188R   26125.76739780  .00000695  00000-0  19549-2 0  9998
2 61609  87.8870  44.6902 0000887  55.2035 304.9176 13.10370769 77731
Epoch: 2026-05-05T18:25Z
TLE epoch observation values (Epoch: 2026-05-05T18:25:03.169Z)
Latitude
-0.00002°
Longitude
-95.21052°
Altitude
1,224.227 km
Speed
7.243 km/s
True Right ascension
02h 58m 45s
True Declination
0° 00' 00"
Sunlit
Object was in daylight at epoch
Visualization orbit readout
Latitude
Unknown
Longitude
Unknown
Altitude
Unknown
Speed
Unknown
Apparent Right ascension
Unknown
Apparent Declination
Unknown
Sunlit
N/A
Visualization observer readout
Local Sidereal Time
18:08:17
Azimuth
Unknown
Elevation
Unknown
Doppler factor
Unknown
Orbital elements
Apogee altitude
1,219.519 km
Perigee altitude
1,218.171 km
Semi-major axis
7,596.982 km
Eccentricity
0.00009
Inclination
87.887°
RAAN
44.6902°
Arg. of periapsis
55.2035°
True anomaly
304.90927°
Mean anomaly
304.9176°
Eccentric anomaly
304.91343°
Mean motion
3.27779 °/min
Orbital period
109.83 mins
BSTAR
0.0019549
Loading maneuver chart data...
Computing Atmospheric mass density...
Loading historical data...
Loading historical data...
Loading historical data...
Loading historical data...
Loading historical data...
Loading historical data...
Loading historical data...

Documentation

Showing up to 5 results
|